LA3HOA-1 Suldalsosen NO current weather conditions

sailwx.info

Wind from 240

Air temperature -2.2° C
Dewpoint -21.6° C

Last reported at 2016-Feb-12 13:45 UTC.
Time now 2016-Feb-12 14:10 UTC

Location: N 59°30' E 006°32'.
View on Google Maps.

See reports from other nearby stations

  
Tides and Currents Weather Stations Pressure Air Temp Water Temp Dewpoint Dewpoint Depression Visibility Wind Speed Wind Dir Waves Ship Positions
date/time (UTC)wind fromknots sea level pressurealtimeterstation pressurevisibilityair tempwater tempwave heightnotes
2016-Feb-12 13:45 240 -2.2
2016-Feb-12 13:40 198 2 gusting 7 -2.2
2016-Feb-12 13:35 143 -2.2
2016-Feb-12 13:30 156 -2.2
2016-Feb-12 13:25 148 -2.2
2016-Feb-12 13:20 144 1 gusting 7 -2.2
2016-Feb-12 13:15 139 4 gusting 7 -2.2
2016-Feb-12 13:10 123 4 gusting 6 -2.2
2016-Feb-12 13:05 150 -3.3
2016-Feb-12 13:00 141 -3.3
2016-Feb-12 12:55 135 2 gusting 6 -3.3
2016-Feb-12 12:50 135 -3.3
2016-Feb-12 12:45 135 -3.3
2016-Feb-12 12:40 150 -3.3
2016-Feb-12 12:35 144 -3.3
2016-Feb-12 12:30 135 -3.3
2016-Feb-12 12:25 135 -3.3
2016-Feb-12 12:20 135 -3.3
2016-Feb-12 12:15 113 -3.3
2016-Feb-12 12:10 098 -3.3
2016-Feb-12 12:05 099 1 gusting 4 -3.3
2016-Feb-12 12:00 112 1 gusting 4 -3.3
2016-Feb-12 11:55 135 -3.3
2016-Feb-12 11:50 130 -3.3
2016-Feb-12 11:45 288 -3.3
2016-Feb-12 11:40 319 -3.9
2016-Feb-12 11:35 022 -4.4
2016-Feb-12 11:30 107 -4.4
2016-Feb-12 11:25 225 -4.4
2016-Feb-12 11:20 274 -4.4
2016-Feb-12 11:15 317 -4.4
2016-Feb-12 11:10 001 1 gusting 2 -5.0
2016-Feb-12 11:05 046 -5.0
2016-Feb-12 11:00 056 -5.0
2016-Feb-12 10:55 169 -5.0
2016-Feb-12 10:50 181 -5.0
2016-Feb-12 10:45 306 -5.0
2016-Feb-12 10:40 330 -5.6
2016-Feb-12 10:35 316 1 gusting 6 -6.1
2016-Feb-12 10:30 302 -6.1
2016-Feb-12 10:25 332 -6.1
2016-Feb-12 10:20 300 -6.1
2016-Feb-12 10:15 274 -6.1
2016-Feb-12 10:10 242 -6.1
2016-Feb-12 10:05 248 1 gusting 4 -6.1
2016-Feb-12 10:00 261 1 gusting 4 -6.1
2016-Feb-12 09:55 283 1 gusting 4 -6.7
2016-Feb-12 09:50 135 -6.7
2016-Feb-12 09:45 199 -6.7
2016-Feb-12 09:40 258 -6.7
2016-Feb-12 09:35 270 -6.7
2016-Feb-12 09:30 270 1 gusting 2 -6.7
2016-Feb-12 09:25 261 -6.7
2016-Feb-12 09:20 233 1 gusting 4 -7.2
2016-Feb-12 09:15 248 -7.2
2016-Feb-12 09:10 305 1 gusting 4 -7.2
2016-Feb-12 09:05 001 -6.7
2016-Feb-12 09:00 329 -6.7
2016-Feb-12 08:55 282 1 gusting 2 -6.7
2016-Feb-12 08:50 352 1 gusting 4 -6.7
2016-Feb-12 08:45 001 1 gusting 4 -7.2
2016-Feb-12 08:40 344 1 gusting 4 -7.2
2016-Feb-12 08:35 287 2 gusting 4 -7.2
2016-Feb-12 08:30 256 1 gusting 4 -6.7
2016-Feb-12 08:25 267 -6.7
2016-Feb-12 08:20 253 1 gusting 6 -6.7
2016-Feb-12 08:15 267 -6.7
2016-Feb-12 08:10 006 1 gusting 4 -6.7
2016-Feb-12 08:05 001 -7.2
2016-Feb-12 08:00 001 -7.2
2016-Feb-12 07:55 346 2 gusting 4 -7.2
2016-Feb-12 07:50 327 -7.2
2016-Feb-12 07:45 001 -7.2
2016-Feb-12 07:40 001 1 gusting 4 -7.2
2016-Feb-12 07:35 346 -7.2
2016-Feb-12 07:30 298 2 gusting 4 -7.2
2016-Feb-12 07:25 322 -7.2
2016-Feb-12 07:20 348 -6.7
2016-Feb-12 07:15 335 2 gusting 6 -6.7
2016-Feb-12 07:10 153 2 gusting 6 -6.7
2016-Feb-12 07:05 125 -6.1
2016-Feb-12 07:00 116 -6.1
2016-Feb-12 06:55 128 1 gusting 10 -6.1
2016-Feb-12 06:50 120 4 gusting 10 -6.1
2016-Feb-12 06:45 106 -6.1
2016-Feb-12 06:40 114 2 gusting 10 -6.1
2016-Feb-12 06:35 122 4 gusting 10 -6.1
2016-Feb-12 06:30 093 6 gusting 10 -6.1
2016-Feb-12 06:25 007 1 gusting 6 -6.7
2016-Feb-12 06:20 003 2 gusting 6 -6.7
2016-Feb-12 06:15 001 2 gusting 6 -6.7
2016-Feb-12 06:10 001 2 gusting 4 -6.7
2016-Feb-12 06:05 001 1 gusting 2 -6.7
2016-Feb-12 06:00 001 1 gusting 4 -6.7
2016-Feb-12 05:55 001 -6.7
2016-Feb-12 05:50 356 1 gusting 4 -6.7
2016-Feb-12 05:45 333 2 gusting 4 -6.7
2016-Feb-12 05:40 282 -6.7
2016-Feb-12 05:35 316 1 gusting 4 -6.1
2016-Feb-12 05:30 332 1 gusting 4 -6.1
2016-Feb-12 05:25 284 1 gusting 4 -6.1
2016-Feb-12 05:20 176 1 gusting 2 -6.1
2016-Feb-12 05:15 101 -6.1
2016-Feb-12 05:10 090 -5.6
2016-Feb-12 05:05 075 -5.6
2016-Feb-12 05:00 050 -5.6
2016-Feb-12 04:55 038 1 gusting 4 -5.6
2016-Feb-12 04:50 076 2 gusting 4 -5.6
2016-Feb-12 04:45 094 -5.6
2016-Feb-12 04:40 079 -5.6
2016-Feb-12 04:35 120 -5.6
2016-Feb-12 04:30 131 -5.0
2016-Feb-12 04:25 106 -5.0
2016-Feb-12 04:20 103 -5.0
2016-Feb-12 04:15 104 2 gusting 6 -5.0
2016-Feb-12 04:10 049 -5.0
2016-Feb-12 04:05 055 1 gusting 4 -5.0
2016-Feb-12 04:00 081 1 gusting 6 -5.0
2016-Feb-12 03:55 102 1 gusting 6 -5.0
2016-Feb-12 03:50 086 1 gusting 2 -5.0
2016-Feb-12 03:45 023 -4.4
2016-Feb-12 03:40 117 -4.4
2016-Feb-12 03:35 120 1 gusting 7 -4.4
2016-Feb-12 03:30 105 2 gusting 8 -4.4
2016-Feb-12 03:25 109 1 gusting 8 -3.9
2016-Feb-12 03:20 106 -3.9
2016-Feb-12 03:15 101 1 gusting 10 -3.9
2016-Feb-12 03:10 099 6 gusting 10 -3.9
2016-Feb-12 03:05 098 2 gusting 12 -3.3
2016-Feb-12 03:00 113 2 gusting 12 -3.3
2016-Feb-12 02:55 086 8 gusting 10 -3.3
2016-Feb-12 02:50 048 2 gusting 8 -3.3
2016-Feb-12 02:45 078 2 gusting 8 -3.3
2016-Feb-12 02:40 101 2 gusting 10 -3.3
2016-Feb-12 02:35 094 6 gusting 10 -3.3
2016-Feb-12 02:30 096 2 gusting 8 -3.3
2016-Feb-12 02:25 109 4 gusting 10 -3.3
2016-Feb-12 02:20 102 4 gusting 10 -3.3
2016-Feb-12 02:15 074 4 gusting 8 -2.8
2016-Feb-12 02:10 051 2 gusting 6 -2.8
2016-Feb-12 02:05 041 4 gusting 7 -2.8
2016-Feb-12 02:00 037 4 gusting 8 -2.8
2016-Feb-12 01:55 020 6 gusting 8 -2.8
2016-Feb-12 01:50 014 6 gusting 8 -2.8
2016-Feb-12 01:45 012 6 gusting 8 -2.8
2016-Feb-12 01:40 004 6 gusting 8 -2.8
2016-Feb-12 01:35 013 4 gusting 8 -2.8
2016-Feb-12 01:30 015 6 gusting 8 -2.2
2016-Feb-12 01:25 011 2 gusting 8 -2.2
2016-Feb-12 01:20 050 4 gusting 6 -2.8
2016-Feb-12 01:15 061 1 gusting 6 -2.8
2016-Feb-12 01:10 064 1 gusting 6 -2.8
2016-Feb-12 01:05 069 -2.8
2016-Feb-12 01:00 020 -2.8
2016-Feb-12 00:55 003 1 gusting 8 -2.8
2016-Feb-12 00:50 010 2 gusting 8 -2.8
2016-Feb-12 00:45 010 2 gusting 7 -2.8
2016-Feb-12 00:40 001 1 gusting 8 -2.8
2016-Feb-12 00:35 020 6 gusting 8 -2.8
2016-Feb-12 00:30 058 1 gusting 6 -3.3
2016-Feb-12 00:25 017 1 gusting 7 -2.8
2016-Feb-12 00:20 001 1 gusting 7 -2.8
2016-Feb-12 00:15 001 4 gusting 7 -2.8
2016-Feb-12 00:10 001 1 gusting 7 -2.8
2016-Feb-12 00:05 001 6 gusting 7 -2.8
2016-Feb-12 00:00 003 6 gusting 7 -2.8
2016-Feb-11 23:55 003 1 gusting 8 -2.8
2016-Feb-11 23:50 359 4 gusting 8 -2.8
2016-Feb-11 23:45 357 1 gusting 7 -2.8
2016-Feb-11 23:40 357 1 gusting 7 -2.8
2016-Feb-11 23:35 002 2 gusting 7 -2.2
2016-Feb-11 23:30 353 4 gusting 6 -2.2
2016-Feb-11 23:25 359 2 gusting 6 -2.2
2016-Feb-11 23:20 016 1 gusting 6 -2.2
2016-Feb-11 23:15 330 -2.2
2016-Feb-11 23:10 281 1 gusting 2 -2.2
2016-Feb-11 23:05 318 1 gusting 7 -1.7
2016-Feb-11 23:00 002 1 gusting 7 -1.7
2016-Feb-11 22:55 317 -1.7
2016-Feb-11 22:50 320 2 gusting 10 -1.7
2016-Feb-11 22:45 327 1 gusting 8 -1.7
2016-Feb-11 22:40 331 1 gusting 13 -1.1
2016-Feb-11 22:35 051 2 gusting 13 -1.1
2016-Feb-11 22:30 082 6 gusting 13 -1.1
2016-Feb-11 22:25 112 1 gusting 22 -1.1
2016-Feb-11 22:20 140 6 gusting 22 -1.1
2016-Feb-11 22:15 099 2 gusting 14 -1.1
2016-Feb-11 22:10 074 2 gusting 14 -1.1
2016-Feb-11 22:05 085 6 gusting 19 -1.1
2016-Feb-11 22:00 099 6 gusting 19 -1.1
2016-Feb-11 21:55 061 2 gusting 10 -1.7
2016-Feb-11 21:50 052 2 gusting 10 -1.1
2016-Feb-11 21:45 059 2 gusting 7 -1.1
2016-Feb-11 21:40 119 2 gusting 10 -0.6
2016-Feb-11 21:35 142 2 gusting 13 -0.6
2016-Feb-11 21:30 191 -0.6
2016-Feb-11 21:25 186 7 gusting 18 -0.0
2016-Feb-11 21:20 173 8 gusting 14 -0.0
2016-Feb-11 21:15 165 7 gusting 22 -0.0
2016-Feb-11 21:10 143 7 gusting 22 -0.0
2016-Feb-11 21:05 150 14 gusting 28 -0.0
2016-Feb-11 21:00 169 14 gusting 28 -0.0
2016-Feb-11 20:55 167 19 gusting 28 -0.0
2016-Feb-11 20:50 152 10 gusting 19 -0.0
2016-Feb-11 20:45 154 10 gusting 25 -0.0
2016-Feb-11 20:40 159 12 gusting 25 -0.0
2016-Feb-11 20:35 169 13 gusting 25 -0.0
2016-Feb-11 20:30 173 10 gusting 25 -0.0
2016-Feb-11 20:25 168 12 gusting 26 -0.0
2016-Feb-11 20:20 162 10 gusting 26 -0.0
2016-Feb-11 20:15 140 8 gusting 22 0.6
2016-Feb-11 20:10 022 2 gusting 20 0.6
2016-Feb-11 20:05 002 6 gusting 19 0.6
2016-Feb-11 20:00 172 6 gusting 22 0.6
2016-Feb-11 19:55 161 12 gusting 22 0.6
2016-Feb-11 19:50 176 10 gusting 22 0.6
2016-Feb-11 19:45 192 10 gusting 22 -0.0
2016-Feb-11 19:40 152 2 gusting 22 -0.0
2016-Feb-11 19:35 150 1 gusting 13 -0.0
2016-Feb-11 19:30 164 6 gusting 20 -0.0
2016-Feb-11 19:25 163 1 gusting 20 0.6
2016-Feb-11 19:20 147 12 gusting 20 0.6
2016-Feb-11 19:15 158 2 gusting 18 0.6
2016-Feb-11 19:10 157 1 gusting 16 -0.0
2016-Feb-11 19:05 161 1 gusting 8 0.6
2016-Feb-11 19:00 205 1 gusting 16 0.6
2016-Feb-11 18:55 201 2 gusting 16 0.6
2016-Feb-11 18:50 167 7 gusting 16 0.6
2016-Feb-11 18:45 167 7 gusting 16 0.6
2016-Feb-11 18:40 188 8 gusting 16 0.6
2016-Feb-11 18:35 190 4 gusting 18 0.6
2016-Feb-11 18:30 172 6 gusting 24 0.6
2016-Feb-11 18:25 175 1 gusting 24 1.1
2016-Feb-11 18:20 179 12 gusting 22 1.1
2016-Feb-11 18:15 192 8 gusting 22 1.1
2016-Feb-11 18:10 216 8 gusting 22 1.1
2016-Feb-11 18:05 217 14 gusting 26 1.1
2016-Feb-11 18:00 182 14 gusting 26 1.1
2016-Feb-11 17:55 166 8 gusting 26 1.1
2016-Feb-11 17:50 169 13 gusting 26 1.1
2016-Feb-11 17:45 179 12 gusting 25 1.1
2016-Feb-11 17:40 189 13 gusting 25 1.1
2016-Feb-11 17:35 177 14 gusting 22 1.1
2016-Feb-11 17:30 181 10 gusting 22 1.7
2016-Feb-11 17:25 175 6 gusting 22 1.7
2016-Feb-11 17:20 174 10 gusting 22 1.7
2016-Feb-11 17:15 175 12 gusting 25 1.7
2016-Feb-11 17:10 152 14 gusting 25 1.7
2016-Feb-11 17:05 157 7 gusting 18 1.7
2016-Feb-11 17:00 169 7 gusting 20 1.7
2016-Feb-11 16:55 162 8 gusting 20 1.7
2016-Feb-11 16:50 179 8 gusting 20 1.7
2016-Feb-11 16:45 186 7 gusting 20 1.7
2016-Feb-11 16:40 194 7 gusting 19 1.7
2016-Feb-11 16:35 194 7 gusting 24 1.7
2016-Feb-11 16:30 179 13 gusting 24 1.7
2016-Feb-11 16:25 177 6 gusting 22 1.7
2016-Feb-11 16:20 177 13 gusting 24 1.7
2016-Feb-11 16:15 173 16 gusting 24 1.7
2016-Feb-11 16:10 175 14 gusting 22 2.2
2016-Feb-11 16:05 181 10 gusting 22 2.2
2016-Feb-11 16:00 182 10 gusting 22 2.2
2016-Feb-11 15:55 184 12 gusting 20 2.2
2016-Feb-11 15:50 173 8 gusting 19 2.2
2016-Feb-11 15:45 164 10 gusting 16 2.2
2016-Feb-11 15:40 170 10 gusting 16 2.2
2016-Feb-11 15:35 177 7 gusting 24 2.2
2016-Feb-11 15:30 175 8 gusting 24 2.2
2016-Feb-11 15:25 178 7 gusting 24 2.2
2016-Feb-11 15:20 187 12 gusting 24 2.2
2016-Feb-11 15:15 155 13 gusting 24 2.2
2016-Feb-11 15:10 121 10 gusting 24 2.2
2016-Feb-11 15:05 128 12 gusting 30 2.8
2016-Feb-11 15:00 162 12 gusting 30 2.8
2016-Feb-11 14:55 170 12 gusting 20 2.8
2016-Feb-11 14:50 168 7 gusting 19 2.8
2016-Feb-11 14:45 167 12 gusting 20 2.8
2016-Feb-11 14:40 154 12 gusting 20 3.3
2016-Feb-11 14:35 165 13 gusting 20 3.3
2016-Feb-11 14:30 185 14 gusting 20 3.3
2016-Feb-11 14:25 182 13 gusting 20 3.3
2016-Feb-11 14:20 170 6 gusting 19 3.3
2016-Feb-11 14:15 171 8 gusting 22 3.3
2016-Feb-11 14:10 178 8 gusting 22 3.3
2016-Feb-11 14:05 175 12 gusting 18 3.9
2016-Feb-11 14:00 173 12 gusting 22 3.9
2016-Feb-11 13:55 168 12 gusting 24 3.9
2016-Feb-11 13:50 162 13 gusting 24 3.9
2016-Feb-11 13:45 155 12 gusting 24 3.9
2016-Feb-11 13:40 155 10 gusting 30 3.9
2016-Feb-11 13:35 164 18 gusting 30 3.9
2016-Feb-11 13:30 162 12 gusting 26 3.9
2016-Feb-11 13:25 160 18 gusting 26 3.9
2016-Feb-11 13:20 151 10 gusting 20 3.9
2016-Feb-11 13:15 143 10 gusting 20 3.9
2016-Feb-11 13:10 143 8 gusting 16 3.9
2016-Feb-11 13:05 150 7 gusting 19 3.9
2016-Feb-11 13:00 167 7 gusting 24 3.9
2016-Feb-11 12:55 167 13 gusting 24 3.9
2016-Feb-11 12:50 162 7 gusting 20 3.9
2016-Feb-11 12:45 158 7 gusting 20 3.9
2016-Feb-11 12:40 145 8 gusting 19 3.9
2016-Feb-11 12:35 153 10 gusting 19 3.9
2016-Feb-11 12:30 167 7 gusting 25 3.9
2016-Feb-11 12:25 160 10 gusting 25 3.9
2016-Feb-11 12:20 159 14 gusting 25 3.9
2016-Feb-11 12:15 170 12 gusting 19 3.9
2016-Feb-11 12:10 181 13 gusting 19 3.9
2016-Feb-11 12:05 178 13 gusting 24 3.9
2016-Feb-11 12:00 168 13 gusting 24 3.9
2016-Feb-11 11:55 175 2 gusting 28 3.9
2016-Feb-11 11:50 183 7 gusting 28 3.9
2016-Feb-11 11:45 172 12 gusting 24 3.9
2016-Feb-11 11:40 174 8 gusting 24 3.9
2016-Feb-11 11:35 177 6 gusting 20 3.9
2016-Feb-11 11:30 163 10 gusting 20 3.9
2016-Feb-11 11:25 150 7 gusting 24 3.9
2016-Feb-11 11:20 163 12 gusting 24 3.9
2016-Feb-11 11:15 179 12 gusting 20 3.9
2016-Feb-11 11:10 181 13 gusting 20 3.9
2016-Feb-11 11:05 172 13 gusting 22 3.9
2016-Feb-11 11:00 153 13 gusting 25 3.9
2016-Feb-11 10:55 149 6 gusting 25 3.9
2016-Feb-11 10:50 162 7 gusting 20 3.9
2016-Feb-11 10:45 169 13 gusting 20 3.9
2016-Feb-11 10:40 176 12 gusting 24 3.9
2016-Feb-11 10:35 178 10 gusting 24 3.9
2016-Feb-11 10:30 173 8 gusting 18 3.9
2016-Feb-11 10:25 174 12 gusting 18 3.9
2016-Feb-11 10:20 175 7 gusting 16 3.3
2016-Feb-11 10:15 072 2 gusting 18 3.3
2016-Feb-11 10:10 050 1 gusting 18 3.3
2016-Feb-11 10:05 085 7 gusting 18 3.3
2016-Feb-11 10:00 167 7 gusting 20 3.3
2016-Feb-11 09:55 151 4 gusting 20 3.3
2016-Feb-11 09:50 104 6 gusting 20 3.3
2016-Feb-11 09:45 140 4 gusting 20 3.3
2016-Feb-11 09:40 159 6 gusting 16 3.3
2016-Feb-11 09:35 126 2 gusting 26 3.3
2016-Feb-11 09:30 111 7 gusting 26 3.3
2016-Feb-11 09:25 139 7 gusting 16 2.8
2016-Feb-11 09:20 139 4 gusting 16 2.8
2016-Feb-11 09:15 001 2.8
2016-Feb-11 09:10 358 2 gusting 10 2.2
2016-Feb-11 09:05 034 4 gusting 18 2.2
2016-Feb-11 09:00 121 4 gusting 18 2.2
2016-Feb-11 08:55 078 4 gusting 14 2.2
2016-Feb-11 08:50 083 4 gusting 16 1.7
2016-Feb-11 08:45 057 4 gusting 16 1.7
2016-Feb-11 08:40 036 2 gusting 13 1.7
2016-Feb-11 08:35 159 1 gusting 14 1.7
2016-Feb-11 08:30 198 1 gusting 14 1.1
2016-Feb-11 08:25 069 1.1
2016-Feb-11 08:20 036 2 gusting 12 1.1
2016-Feb-11 08:15 058 2 gusting 12 0.6
2016-Feb-11 08:10 095 1 gusting 4 0.6
2016-Feb-11 08:05 079 2 gusting 6 0.6
2016-Feb-11 08:00 066 2 gusting 6 0.6
2016-Feb-11 07:55 092 2 gusting 10 0.6
2016-Feb-11 07:50 109 0.6
2016-Feb-11 07:45 099 2 gusting 10 0.6
2016-Feb-11 07:40 105 1 gusting 10 0.6
2016-Feb-11 07:35 117 6 gusting 12 0.6
2016-Feb-11 07:30 070 2 gusting 12 0.6
2016-Feb-11 07:25 039 4 gusting 8 -0.0
2016-Feb-11 07:20 069 1 gusting 8 -0.0
2016-Feb-11 07:15 097 4 gusting 8 -0.0
2016-Feb-11 07:10 124 2 gusting 8 -0.0
2016-Feb-11 07:05 120 2 gusting 8 -0.0
2016-Feb-11 07:00 107 2 gusting 8 -0.0
2016-Feb-11 06:55 110 2 gusting 8 -0.6
2016-Feb-11 06:50 082 -0.6
2016-Feb-11 06:45 045 -0.6
2016-Feb-11 06:40 068 1 gusting 4 -0.6
2016-Feb-11 06:35 083 -0.6
2016-Feb-11 06:30 058 -0.6
2016-Feb-11 06:25 067 1 gusting 4 -0.6
2016-Feb-11 06:20 119 1 gusting 4 -0.6
2016-Feb-11 06:15 121 -0.6
2016-Feb-11 06:10 090 -0.6
2016-Feb-11 06:05 135 -0.6
2016-Feb-11 06:00 128 -0.6
2016-Feb-11 05:55 104 -0.6
2016-Feb-11 05:50 062 1 gusting 4 -0.6
2016-Feb-11 05:45 075 1 gusting 6 -0.6
2016-Feb-11 05:40 075 2 gusting 6 -0.6
2016-Feb-11 05:35 102 4 gusting 10 -0.6
2016-Feb-11 05:30 110 1 gusting 10 -0.6
2016-Feb-11 05:25 090 2 gusting 4 -1.1
2016-Feb-11 05:20 078 1 gusting 4 -1.1
2016-Feb-11 05:15 050 1 gusting 2 -1.1
2016-Feb-11 05:10 005 -1.1
2016-Feb-11 05:05 022 1 gusting 4 -1.1
2016-Feb-11 05:00 022 1 gusting 4 -1.1
2016-Feb-11 04:55 003 -1.1
2016-Feb-11 04:50 259 1 gusting 2 -1.1
2016-Feb-11 04:45 220 -1.1
2016-Feb-11 04:40 172 -1.1
2016-Feb-11 04:35 161 2 gusting 4 -1.1
2016-Feb-11 04:30 141 1 gusting 4 -1.1
2016-Feb-11 04:25 060 1 gusting 4 -1.1
2016-Feb-11 04:20 040 1 gusting 4 -1.1
2016-Feb-11 04:15 070 1 gusting 6 -1.1
2016-Feb-11 04:10 123 1 gusting 6 -1.1
2016-Feb-11 04:05 137 2 gusting 6 -1.1
2016-Feb-11 04:00 129 2 gusting 8 -1.1
2016-Feb-11 03:55 130 -1.1
2016-Feb-11 03:50 122 7 gusting 10 -1.1
2016-Feb-11 03:45 094 1 gusting 4 -1.1
2016-Feb-11 03:40 308 1 gusting 2 -1.7
2016-Feb-11 03:35 304 -1.7
2016-Feb-11 03:30 001 -1.7
2016-Feb-11 03:25 351 -1.7
2016-Feb-11 03:20 282 -1.7
2016-Feb-11 03:15 237 -1.7
2016-Feb-11 03:10 -1.7
2016-Feb-11 03:05 -1.7
2016-Feb-11 03:00 -1.7
2016-Feb-11 02:55 -1.7
2016-Feb-11 02:50 -1.7
2016-Feb-11 02:45 261 -1.1
2016-Feb-11 02:40 337 -1.1
2016-Feb-11 02:35 349 -1.1
2016-Feb-11 02:30 328 2 gusting 4 -1.7
2016-Feb-11 02:25 240 -1.7
2016-Feb-11 02:20 267 -1.1
2016-Feb-11 02:15 314 -1.1
2016-Feb-11 02:10 314 -1.1
2016-Feb-11 02:05 -1.1
2016-Feb-11 02:00 -1.1
2016-Feb-11 01:55 -1.1
2016-Feb-11 01:50 -1.1
2016-Feb-11 01:45 081 -1.1
2016-Feb-11 01:40 035 -1.1
2016-Feb-11 01:35 356 -1.1
2016-Feb-11 01:30 349 1 gusting 6 -1.1
2016-Feb-11 01:25 005 2 gusting 4 -1.7
2016-Feb-11 01:20 001 -1.7
2016-Feb-11 01:15 001 -1.7
2016-Feb-11 01:10 001 1 gusting 4 -1.7
2016-Feb-11 01:05 225 -1.7
2016-Feb-11 01:00 250 -1.7
2016-Feb-11 00:55 267 -1.7
2016-Feb-11 00:50 270 -1.7
2016-Feb-11 00:45 273 -1.7
2016-Feb-11 00:40 245 -1.7
2016-Feb-11 00:35 148 1 gusting 6 -1.7
2016-Feb-11 00:30 140 1 gusting 6 -1.7
2016-Feb-11 00:25 135 2 gusting 4 -1.7
2016-Feb-11 00:20 270 -1.7
2016-Feb-11 00:15 270 -1.7
2016-Feb-11 00:10 -1.7
2016-Feb-11 00:05 270 -1.7
2016-Feb-11 00:00 274 -1.7
2016-Feb-10 23:55 345 1 gusting 4 -1.7
2016-Feb-10 23:50 013 -1.7
2016-Feb-10 23:45 017 1 gusting 4 -1.7
2016-Feb-10 23:40 001 1 gusting 4 -1.7
2016-Feb-10 23:35 181 -1.7
2016-Feb-10 23:30 213 -1.7
2016-Feb-10 23:25 242 -1.7
2016-Feb-10 23:20 225 -1.7
2016-Feb-10 23:15 347 -1.7
2016-Feb-10 23:10 001 -1.7
2016-Feb-10 23:05 016 1 gusting 4 -1.7
2016-Feb-10 23:00 063 1 gusting 4 -1.7
2016-Feb-10 22:55 122 -1.7
2016-Feb-10 22:50 122 1 gusting 7 -1.7
2016-Feb-10 22:45 128 4 gusting 10 -1.7
2016-Feb-10 22:40 133 4 gusting 10 -1.7
2016-Feb-10 22:35 128 8 gusting 10 -1.7
2016-Feb-10 22:30 104 2 gusting 6 -1.7
2016-Feb-10 22:25 094 2 gusting 4 -1.7
2016-Feb-10 22:20 263 1 gusting 4 -2.2
2016-Feb-10 22:15 238 1 gusting 2 -2.2
2016-Feb-10 22:10 137 -2.2
2016-Feb-10 22:05 135 -2.2
2016-Feb-10 22:00 135 -2.2
2016-Feb-10 21:55 190 -2.2
2016-Feb-10 21:50 220 -2.2
2016-Feb-10 21:45 218 -2.2
2016-Feb-10 21:35 -2.2
2016-Feb-10 21:30 -2.2
2016-Feb-10 21:25 -2.2
2016-Feb-10 21:20 270 -2.2
2016-Feb-10 21:15 270 -2.2
2016-Feb-10 21:10 270 -2.2
2016-Feb-10 21:05 270 -2.2
2016-Feb-10 21:00 270 -2.2
2016-Feb-10 20:55 270 -2.2
2016-Feb-10 20:50 278 -2.2
2016-Feb-10 20:45 094 2 gusting 7 -2.2
2016-Feb-10 20:40 108 4 gusting 7 -2.2
2016-Feb-10 20:35 114 4 gusting 7 -2.2
2016-Feb-10 20:30 097 4 gusting 6 -2.2
2016-Feb-10 20:25 060 1 gusting 4 -2.2
2016-Feb-10 20:20 282 -2.2
2016-Feb-10 20:10 281 1 gusting 4 -2.2
2016-Feb-10 20:05 090 -1.7
2016-Feb-10 20:00 092 -1.7
2016-Feb-10 19:55 097 -1.7
2016-Feb-10 19:50 106 2 gusting 10 -1.7
2016-Feb-10 19:45 107 2 gusting 10 -1.7
2016-Feb-10 19:40 106 6 gusting 10 -1.7
2016-Feb-10 19:35 100 4 gusting 7 -1.7
2016-Feb-10 19:30 043 2 gusting 6 -1.7
2016-Feb-10 19:25 014 1 gusting 4 -1.7
2016-Feb-10 19:20 061 -1.7
2016-Feb-10 19:15 085 1 gusting 7 -1.7
2016-Feb-10 19:10 092 2 gusting 7 -1.1
2016-Feb-10 19:05 101 4 gusting 7 -1.1
2016-Feb-10 19:00 098 4 gusting 7 -1.1
2016-Feb-10 18:55 089 2 gusting 8 -1.1
2016-Feb-10 18:50 095 4 gusting 8 -1.1
2016-Feb-10 18:45 091 4 gusting 8 -1.1
2016-Feb-10 18:40 081 6 gusting 8 -1.1
2016-Feb-10 18:35 071 4 gusting 8 -1.1
2016-Feb-10 18:30 089 2 gusting 8 -1.1
2016-Feb-10 18:25 101 2 gusting 8 -1.1
2016-Feb-10 18:20 097 4 gusting 7 -1.7
2016-Feb-10 18:15 095 -1.7
2016-Feb-10 18:10 113 1 gusting 6 -1.1
2016-Feb-10 18:05 117 -1.1
2016-Feb-10 18:00 100 -1.1
2016-Feb-10 17:55 090 1 gusting 6 -1.1
2016-Feb-10 17:50 125 1 gusting 4 -1.1
2016-Feb-10 17:45 110 -1.1
2016-Feb-10 17:40 095 -0.6
2016-Feb-10 17:35 093 2 gusting 8 -0.6
2016-Feb-10 17:30 090 4 gusting 8 -0.6
2016-Feb-10 17:25 090 2 gusting 8 -0.6
2016-Feb-10 17:20 086 6 gusting 8 -0.6
2016-Feb-10 17:15 086 2 gusting 8 -0.6
2016-Feb-10 17:10 090 2 gusting 6 -0.6
2016-Feb-10 17:05 067 1 gusting 6 -0.6
2016-Feb-10 17:00 056 1 gusting 10 -0.6
2016-Feb-10 16:55 082 1 gusting 10 -0.0
2016-Feb-10 16:50 098 7 gusting 10 -0.0
2016-Feb-10 16:45 090 4 gusting 8 -0.6
2016-Feb-10 16:40 081 1 gusting 8 -0.6
2016-Feb-10 16:35 094 2 gusting 8 -0.0
2016-Feb-10 16:30 096 4 gusting 8 -0.0
2016-Feb-10 16:25 094 4 gusting 8 -0.0
2016-Feb-10 16:20 092 2 gusting 8 -0.0
2016-Feb-10 16:15 093 2 gusting 8 -0.0
2016-Feb-10 16:10 092 4 gusting 8 0.6
2016-Feb-10 16:05 090 4 gusting 10 0.6
2016-Feb-10 16:00 094 4 gusting 10 0.6
2016-Feb-10 15:55 098 4 gusting 8 0.6
2016-Feb-10 15:50 107 4 gusting 8 0.6
2016-Feb-10 15:45 104 2 gusting 8 1.1
2016-Feb-10 15:40 094 6 gusting 8 1.1
2016-Feb-10 15:35 090 4 gusting 8 1.1
2016-Feb-10 15:30 087 4 gusting 7 1.1
2016-Feb-10 15:25 097 1 gusting 7 1.1
2016-Feb-10 15:20 105 1 gusting 7 1.7
2016-Feb-10 15:15 110 1 gusting 8 1.7
2016-Feb-10 15:10 122 4 gusting 8 1.7
2016-Feb-10 15:05 132 2.2
2016-Feb-10 15:00 090 2.2
2016-Feb-10 14:55 078 2.2
2016-Feb-10 14:50 127 2.8
2016-Feb-10 14:45 126 1 gusting 6 2.8
2016-Feb-10 14:40 124 3.3
2016-Feb-10 14:35 137 3.9
2016-Feb-10 14:30 141 2 gusting 8 4.4
2016-Feb-10 14:20 137 1 gusting 7 5.0
2016-Feb-10 14:15 108 4 gusting 6 5.6
2016-Feb-10 14:10 010 2 gusting 6 5.6
2016-Feb-10 14:05 045 1 gusting 4 2.8
2016-Feb-10 14:00 114 1 gusting 4 2.8